This demonstration page uses our WeatherBlox Daily Observations layout. Learn more.

Left ArrowRight Arrow

39.01783, -85.05884

Hourly Observations for October 8, 2018

Temp ( °F °C ) Dew Point ( °F °C ) Humidity (%) Winds ( mph kmh ) Pressure ( in mb ) Visibility ( mi km ) Precip ( " mm )
12:52 am 00:52 Mostly Clear 73 22.8 69 20.6 87 87 SSE 5 7 30.14 1021 10 16 N/A
1:52 am 01:52 Mostly Clear 74 23.3 69 20.6 85 85 SSE 5 7 30.14 1021 10 16 N/A
2:52 am 02:52 Clear 73 22.8 69 20.6 87 87 S 3 6 30.13 1020 10 16 N/A
3:52 am 03:52 Clear 73 22.8 69 20.6 87 87 ESE 5 7 30.13 1020 10 16 N/A
4:52 am 04:52 Clear 72 22.2 69 20.6 91 91 N N/A 30.13 1020 10 16 N/A
5:52 am 05:52 Clear 72 22.2 69 20.6 91 91 N N/A 30.13 1020 10 16 N/A
6:52 am 06:52 Clear 71 21.7 69 20.6 94 94 N N/A 30.14 1021 9 14 N/A
7:52 am 07:52 Partly Cloudy 70 21.1 69 20.6 97 97 S 3 6 30.15 1021 8 13 N/A
8:52 am 08:52 Partly Cloudy 74 23.3 71 21.7 91 91 S 6 9 30.16 1021 9 14 N/A
9:52 am 09:52 Sunny 77 25 71 21.7 82 82 SSW 6 9 30.17 1022 10 16 N/A
10:52 am 10:52 Mostly Sunny 81 27.2 71 21.7 72 72 SW 7 11 30.18 1022 10 16 N/A
11:52 am 11:52 Mostly Sunny 83 28.3 70 21.1 65 65 SW 10 17 30.18 1022 10 16 N/A
12:52 pm 12:52 Mostly Sunny 84 28.9 70 21.1 63 63 VRB 5 7 30.16 1022 10 16 N/A
1:52 pm 13:52 Partly Cloudy 86 30 68 20 55 55 SSW 8 13 30.15 1021 10 16 N/A
2:52 pm 14:52 Partly Cloudy 86 30 68 20 55 55 S 12 19 30.12 1020 10 16 N/A
3:52 pm 15:52 Partly Cloudy 85 29.4 67 19.4 55 55 SW 9 15 30.12 1020 10 16 N/A
4:52 pm 16:52 Partly Cloudy 85 29.4 69 20.6 59 59 SW 6 9 30.11 1020 10 16 N/A
5:52 pm 17:52 Mostly Cloudy 83 28.3 68 20 61 61 SSW 8 13 30.11 1020 10 16 N/A
6:52 pm 18:52 Mostly Cloudy 81 27.2 71 21.7 72 72 SSE 5 7 30.12 1020 10 16 N/A
7:52 pm 19:52 Mostly Clear 79 26.1 69 20.6 72 72 SE 5 7 30.12 1020 10 16 N/A
8:52 pm 20:52 Mostly Clear 75 23.9 69 20.6 82 82 SSE 5 7 30.12 1020 10 16 N/A
9:52 pm 21:52 Partly Cloudy 75 23.9 69 20.6 82 82 SE 8 13 30.12 1020 10 16 N/A
10:52 pm 22:52 Mostly Clear 76 24.4 69 20.6 79 79 SE 8 13 30.12 1020 10 16 N/A
11:52 pm 23:52 Clear 76 24.4 69 20.6 79 79 SE 9 15 30.12 1020 10 16 N/A

Powered by AerisWeather